EDT,Max TemperatureF,Mean TemperatureF,Min TemperatureF,Max Dew PointF,MeanDew PointF,Min DewpointF,Max Humidity, Mean Humidity, Min Humidity, Max Sea Level PressureIn, Mean Sea Level PressureIn, Min Sea Level PressureIn, Max VisibilityMiles, Mean VisibilityMiles, Min VisibilityMiles, Max Wind SpeedMPH, Mean Wind SpeedMPH, Max Gust SpeedMPH,PrecipitationIn, CloudCover, Events, WindDirDegrees
2013-5-1,79,64,48,45,39,31,71,47,22,30.44,30.37,30.28,10,10,10,12,4,17,0.00,0,,229
2013-5-2,83,67,50,44,39,32,63,43,23,30.44,30.37,30.30,10,10,10,22,8,30,0.00,3,,191
2013-5-3,72,61,49,41,35,28,64,45,25,30.49,30.40,30.32,10,10,10,13,5,16,0.00,0,,170
2013-5-4,77,62,46,44,41,38,77,51,25,30.35,30.27,30.18,10,10,10,15,4,20,0.00,0,,336
2013-5-5,81,66,51,42,35,31,68,43,18,30.25,30.18,30.09,10,10,10,17,8,23,0.00,0,,188
2013-5-6,80,66,51,41,30,15,51,31,11,30.21,30.12,30.03,10,10,10,16,9,21,0.00,0,,188
2013-5-7,84,70,56,50,43,27,72,45,18,30.14,30.08,30.01,10,10,10,18,6,26,0.00,0,,189
2013-5-8,81,69,56,60,53,46,93,64,35,30.15,30.08,30.01,10,10,10,21,8,28,0.11,4,Rain-Thunderstorm,161
2013-5-9,75,67,58,59,55,46,97,68,38,29.99,29.92,29.84,10,10,5,15,5,18,0.15,4,Rain,156
2013-5-10,72,64,56,58,55,53,93,75,57,30.00,29.93,29.78,10,10,8,12,4,14,0.06,7,Rain,198
2013-5-11,72,61,50,61,55,45,90,73,55,29.76,29.67,29.60,10,10,10,22,11,30,0.13,7,Rain,186
2013-5-12,60,52,43,48,36,24,93,61,28,29.77,29.68,29.64,10,10,10,20,9,33,0.00,6,,242
2013-5-13,54,48,41,35,28,22,70,53,35,30.06,29.90,29.76,10,10,10,23,10,33,0.01,7,,245
2013-5-14,58,47,35,36,29,22,92,58,24,30.12,30.06,30.00,10,10,10,14,4,20,0.00,2,,359
2013-5-15,65,49,32,48,37,26,82,55,27,30.03,29.80,29.58,10,10,9,26,10,37,0.06,4,Rain,174
2013-5-16,77,64,50,49,41,31,83,51,19,29.92,29.69,29.61,10,10,10,25,12,32,0.00,4,,270
2013-5-17,67,57,47,42,39,36,80,57,34,30.22,30.09,29.94,10,10,10,16,7,22,T,4,Rain,346
2013-5-18,74,58,41,42,37,28,89,55,20,30.31,30.25,30.21,10,10,10,12,3,15,0.00,1,,25
2013-5-19,71,60,49,55,49,39,93,70,47,30.27,30.21,30.09,10,10,7,24,10,33,0.21,5,Rain,176
2013-5-20,71,65,58,60,56,54,97,84,70,30.07,30.01,29.97,10,10,10,17,7,30,T,6,Rain,177
2013-5-21,68,63,58,64,57,54,93,81,68,29.96,29.89,29.80,10,9,2,30,7,46,0.96,7,Rain-Thunderstorm,292
2013-5-22,79,68,57,68,62,55,97,80,62,29.87,29.79,29.71,10,9,1,23,8,30,1.43,6,Rain-Thunderstorm,169
2013-5-23,79,71,63,67,63,61,93,76,58,29.75,29.73,29.68,10,7,1,23,9,32,2.26,7,Rain-Thunderstorm,174
2013-5-24,63,54,45,61,46,42,96,91,86,30.05,29.93,29.73,10,6,2,22,13,29,1.13,8,Rain,347
2013-5-25,46,44,42,43,41,37,92,87,82,30.03,29.99,29.92,10,7,3,25,17,36,1.23,8,Rain,357
2013-5-26,51,47,42,43,40,39,96,85,74,30.09,29.95,29.87,10,8,2,23,11,33,0.46,8,Rain,346
2013-5-27,68,55,41,42,37,33,89,58,27,30.18,30.13,30.07,10,10,10,17,7,24,0.00,0,,283
2013-5-28,74,57,40,46,40,37,89,59,29,30.23,30.16,30.09,10,10,10,14,6,18,0.00,0,,187
2013-5-29,69,62,55,64,57,47,93,75,56,30.08,30.00,29.91,10,9,2,18,8,25,0.54,7,Rain,169
2013-5-30,88,76,63,65,62,59,93,66,39,30.07,30.02,29.97,10,10,10,12,5,16,0.00,1,,220
2013-5-31,91,77,63,67,63,58,93,65,37,30.06,29.98,29.87,10,10,10,16,7,21,T,1,,191